Regional Weather Roundup
Issued by NWS Cleveland, OH

Home | Current Version | Previous Version | Text Only | Print | Product List | Glossary On
Versions: 1 2 3 4 5 6 7 8 9 10 11 12 13 14 15 16 17 18 19 20 21 22 23 24 25 26 27 28 29 30 31 32 33 34 35 36 37 38 39 40 41 42 43 44 45 46 47 48 49 50
000
ASUS41 KCLE 270312
RWRCLE
OHIO REGIONAL WEATHER ROUNDUP
NATIONAL WEATHER SERVICE WILMINGTON, OH
1100 PM EDT WED JUL 26 2017

NOTE: "FAIR" INDICATES FEW OR NO CLOUDS BELOW 12,000 FEET WITH NO
SIGNIFICANT WEATHER AND/OR OBSTRUCTIONS TO VISIBILITY.

OHZ001>008-015>018-024>027-034-035-043-044-270400-
   NORTHWEST OHIO

CITY           SKY/WX    TMP DP  RH WIND       PRES   REMARKS
DEFIANCE       FAIR      72  62  71 CALM      30.04S
FINDLAY        FAIR      71  64  78 SE6       30.04S
TOLEDO EXPRESS FAIR      70  66  87 CALM      30.04S
TOLEDO EXEC    FAIR      73  67  81 SE6       30.04F
LIMA           FAIR      68  65  90 SE3       30.06R
$$

OHZ009>014-019>023-028>033-038-089-270400-
   NORTHEAST OHIO

CITY           SKY/WX    TMP DP  RH WIND       PRES   REMARKS
CLE-HOPKINS    MOCLDY    73  64  73 SE5       30.07F
CLE-LAKEFRONT  FAIR      72  62  71 SE5       30.04F
CUY CO. ARPT   PTCLDY    72  64  78 MISG      30.06
LORAIN-ELYRIA    N/A    N/A N/A N/A MISG      30.06F
ASHTABULA      FAIR      66  63  90 SE6       30.07F
AKRON-CANTON   MOCLDY    71  62  73 SW5       30.07F
WOOSTER        FAIR      65  63  93 CALM      30.07F
MANSFIELD      FAIR      69  64  84 SE6       30.07F
YOUNGSTOWN     MOCLDY    66  63  90 E6        30.08S
$$

OHZ042-051>053-060>062-070>072-077>081-270400-
  SOUTHWEST OHIO

CITY           SKY/WX    TMP DP  RH WIND       PRES   REMARKS
CINC-COVINGTON MOCLDY    78  71  79 VRB3      30.04R
CINC-LUNKEN    FAIR      73  72  96 CALM      30.03S
HAMILTON       FAIR      73  70  90 CALM      30.04R
DAYTON         FAIR      72  63  73 SE6       30.06S
WRIGHT-PAT AFB MOCLDY    73  65  75 CALM      30.05R
DAYTON GENERAL FAIR      74  65  73 SE3       30.05R
WILMINGTON     FAIR      68  66  93 SE3       30.05F
$$

OHZ036-037-039>041-045>050-054>059-063>069-073>076-082>088-270400-
  CENTRAL AND SOUTHEAST OHIO

CITY           SKY/WX    TMP DP  RH WIND       PRES   REMARKS
COLUMBUS       CLOUDY    68  64  87 E6        30.04F
OSU AIRPORT    FAIR      68  65  90 CALM      30.06S
BOLTON FIELD   FAIR      67  65  92 CALM      30.06S
RICKENBACK AFB FAIR      69  65  88 CALM      30.05S
NEWARK         FAIR      66  64  93 CALM      30.06S
MARION         FAIR      69  64  84 CALM      30.06F
LANCASTER      FAIR      66  65  96 CALM      30.07S
ZANESVILLE     FAIR      69  66  90 SE3       30.06F
NEW PHILLY     FAIR      66  65  96 SE3       30.08S
$$



USA.gov is the U.S. government's official web portal to all federal, state and local government web resources and services.